TimeEST,TemperatureF,Dew PointF,Humidity,Sea Level PressureIn,VisibilityMPH,Wind Direction,Wind SpeedMPH,Gust SpeedMPH,PrecipitationIn,Events,Conditions,WindDirDegrees,DateUTC
12:05 AM,10.4,8.6,92,29.74,5.0,North,4.6,-,0.00,Snow,Light Snow,350,2005-01-20 05:05:00
12:52 AM,10.9,7.0,84,29.81,4.0,NW,5.8,-,0.00,Snow,Light Snow,320,2005-01-20 05:52:00
1:52 AM,10.9,8.1,88,29.80,10.0,NW,3.5,-,0.00,,Overcast,320,2005-01-20 06:52:00
2:52 AM,9.0,6.1,88,29.77,9.0,Calm,Calm,-,0.00,,Mostly Cloudy,0,2005-01-20 07:52:00
3:52 AM,7.0,5.0,92,29.77,10.0,Calm,Calm,-,N/A,,Clear,0,2005-01-20 08:52:00
4:52 AM,1.9,-0.0,91,29.78,10.0,Calm,Calm,-,N/A,,Clear,0,2005-01-20 09:52:00
5:20 AM,1.4,-2.2,85,29.69,10.0,Calm,Calm,-,N/A,,Mostly Cloudy,0,2005-01-20 10:20:00
5:52 AM,-0.0,-2.9,88,29.78,10.0,Calm,Calm,-,N/A,,Overcast,0,2005-01-20 10:52:00
6:52 AM,5.0,1.9,87,29.79,4.0,Calm,Calm,-,0.00,Snow,Light Snow,0,2005-01-20 11:52:00
7:38 AM,8.6,5.0,85,29.71,2.5,Calm,Calm,-,0.00,Snow,Light Snow,0,2005-01-20 12:38:00
7:52 AM,9.0,6.1,88,29.79,3.0,Variable,3.5,-,0.00,Snow,Light Snow,0,2005-01-20 12:52:00
8:01 AM,10.4,6.8,85,29.72,2.5,NW,3.5,-,0.00,Snow,Light Snow,320,2005-01-20 13:01:00
8:18 AM,10.4,6.8,85,29.72,1.8,Variable,3.5,-,0.00,Snow,Light Snow,0,2005-01-20 13:18:00
8:52 AM,12.9,8.1,81,29.80,1.5,NNW,3.5,-,0.00,Snow,Light Snow,340,2005-01-20 13:52:00
9:03 AM,12.2,6.8,79,29.72,3.0,NNW,4.6,-,0.00,Snow,Light Snow,340,2005-01-20 14:03:00
9:28 AM,14.0,8.6,79,29.72,2.5,Variable,5.8,-,0.00,Snow,Light Snow,0,2005-01-20 14:28:00
9:40 AM,14.0,8.6,79,29.73,3.0,NW,6.9,-,0.00,Snow,Light Snow,310,2005-01-20 14:40:00
9:52 AM,15.1,8.1,74,29.80,2.5,NW,5.8,-,0.00,Snow,Light Snow,320,2005-01-20 14:52:00
10:22 AM,14.0,5.0,67,29.73,4.0,NNW,8.1,-,0.00,Snow,Light Snow,330,2005-01-20 15:22:00
10:52 AM,16.0,6.1,65,29.79,7.0,NW,10.4,-,0.00,,Overcast,310,2005-01-20 15:52:00
11:11 AM,15.8,6.8,68,29.72,5.0,WNW,9.2,18.4,0.00,Snow,Light Snow,290,2005-01-20 16:11:00
11:52 AM,14.0,3.9,64,29.79,6.0,NNW,12.7,-,0.00,Snow,Light Snow,340,2005-01-20 16:52:00
12:52 PM,12.0,-0.0,59,29.81,10.0,NNW,11.5,-,N/A,,Overcast,340,2005-01-20 17:52:00
1:04 PM,10.4,-0.4,62,29.73,10.0,NNW,11.5,-,N/A,,Overcast,340,2005-01-20 18:04:00
1:40 PM,10.4,1.4,67,29.74,7.0,WNW,9.2,-,N/A,,Overcast,300,2005-01-20 18:40:00
1:52 PM,10.9,-0.0,61,29.82,10.0,WNW,8.1,-,N/A,,Overcast,300,2005-01-20 18:52:00
1:59 PM,10.4,-0.4,62,29.74,10.0,West,6.9,-,N/A,,Overcast,270,2005-01-20 18:59:00
2:52 PM,10.9,-0.9,59,29.83,10.0,Variable,6.9,-,N/A,,Overcast,0,2005-01-20 19:52:00
3:52 PM,8.1,-2.0,64,29.85,7.0,WNW,10.4,21.9,N/A,,Overcast,290,2005-01-20 20:52:00
4:52 PM,5.0,-2.9,70,29.89,5.0,Variable,5.8,18.4,N/A,,Haze,0,2005-01-20 21:52:00
5:52 PM,1.9,-5.1,72,29.91,10.0,West,8.1,-,N/A,,Overcast,280,2005-01-20 22:52:00
6:52 PM,1.0,-8.0,66,29.94,10.0,Variable,6.9,-,N/A,,Partly Cloudy,0,2005-01-20 23:52:00
7:52 PM,-0.9,-9.0,69,29.96,10.0,Calm,Calm,-,N/A,,Overcast,0,2005-01-21 00:52:00
8:52 PM,-0.9,-9.0,69,29.96,8.0,WNW,6.9,-,N/A,,Overcast,290,2005-01-21 01:52:00
9:52 PM,-2.9,-9.9,72,29.96,6.0,West,10.4,-,N/A,,Haze,280,2005-01-21 02:52:00
10:52 PM,-4.0,-11.0,72,29.98,6.0,West,9.2,-,N/A,,Haze,270,2005-01-21 03:52:00
11:04 PM,-5.8,-11.2,77,29.89,7.0,West,6.9,-,N/A,,Overcast,270,2005-01-21 04:04:00
11:52 PM,-6.0,-13.0,72,29.99,10.0,West,4.6,-,N/A,,Scattered Clouds,270,2005-01-21 04:52:00